Theta_e
354 355 355 355 355 355 358 359 356 354 354 353 354 355 353 355 357 356 355 353 352 351 349 348 349 350 349 349 351 350 339 348 350 350 352 351 348 347 349 348 347 348 347
355 356 354 353 355 356 357 357 356 356 354 353 355 355 357 357 358 357 356 356 354 353 352 349 349 349 349 351 351 352 353 352 349 349 351 350 350 349 349 348 346 348 348
353 352 352 354 354 354 355 355 354 354 354 355 357 357 359 358 358 358 358 358 356 355 352 348 344 345 352 353 351 351 352 352 354 353 352 350 352 351 349 347 348 349 350
351 350 351 350 349 349 349 349 348 350 358 357 359 360 358 361 360 359 359 359 359 356 355 354 352 352 352 352 352 350 351 351 351 352 351 350 348 351 349 351 351 350 350
360 360 361 361 360 360 360 360 358 358 360 360 359 359 361 360 360 359 361 359 356 353 353 356 357 355 353 350 351 351 349 349 348 349 349 350 349 349 352 349 350 348 351
357 356 356 357 357 357 358 358 359 358 356 357 358 358 358 358 359 359 356 352 350 336 336 345 354 354 352 355 354 352 349 348 349 346 343 344 349 349 350 351 351 350 350
352 351 351 352 352 352 354 353 352 353 352 352 353 356 356 356 356 357 356 354 352 340 345 337 347 343 341 345 355 350 350 350 349 346 344 347 348 348 347 345 351 350 350
342 341 341 341 342 343 344 345 346 350 352 352 351 352 354 354 354 357 356 354 352 351 350 350 348 348 350 345 352 351 350 350 350 349 347 349 349 350 348 347 346 351 350
339 339 339 339 338 338 337 338 340 340 341 344 347 348 347 350 352 352 354 353 352 351 350 349 348 351 354 353 351 349 349 350 349 351 351 346 346 352 351 350 350 351 350
335 335 335 335 333 330 335 332 331 332 335 336 338 341 345 345 340 344 351 352 351 350 349 349 348 347 346 346 347 348 350 349 349 350 352 353 347 346 351 351 351 349 349
334 333 333 333 333 335 331 330 332 332 332 332 333 334 336 339 340 341 345 347 349 348 347 347 347 347 344 343 342 343 345 348 347 346 348 351 351 350 350 351 351 351 348
332 334 333 333 333 333 330 330 331 333 335 329 326 326 326 330 334 332 328 328 337 341 342 344 344 343 342 342 343 342 342 342 342 341 341 341 344 348 350 349 349 350 349
334 334 333 333 333 333 331 330 329 328 326 325 325 325 325 325 326 326 324 323 322 321 321 324 331 336 338 340 340 341 341 342 341 338 340 340 341 343 347 349 348 348 348
333 333 333 332 331 330 330 329 329 327 326 326 326 326 326 325 325 324 324 324 324 324 323 322 321 321 322 324 325 333 340 341 342 342 342 342 343 344 346 346 347 345 344
331 329 327 328 328 328 327 327 327 326 326 326 326 326 326 325 324 324 324 324 324 325 326 326 325 325 326 326 328 333 337 341 343 343 343 343 343 345 345 346 345 343 343
329 328 327 326 326 326 325 325 327 326 326 326 326 326 327 327 326 325 324 324 325 325 328 327 325 327 329 329 330 334 334 336 338 340 341 342 342 342 343 343 344 345 346
331 326 328 326 326 326 326 326 326 326 327 328 329 328 326 326 326 327 327 327 326 328 329 328 328 329 332 330 330 331 334 332 332 334 338 340 339 340 341 341 341 342 340
326 326 328 327 326 326 327 326 327 327 328 326 325 321 324 328 328 327 326 327 328 329 328 328 328 329 329 329 329 328 328 328 332 331 331 334 339 339 340 339 340 340 338
325 326 326 327 325 325 326 326 326 326 326 322 319 319 320 322 322 323 324 322 324 324 321 322 325 327 328 328 327 325 327 329 330 330 330 330 330 331 332 333 334 337 340
323 325 325 324 323 323 324 324 323 320 324 320 317 316 317 319 319 317 318 319 320 320 319 317 315 319 323 323 324 325 325 324 324 325 325 327 328 328 329 329 328 331 326
323 321 321 322 319 319 321 317 317 317 318 320 316 316 315 316 320 317 317 317 319 318 317 316 315 314 314 316 318 316 319 321 321 321 322 322 322 325 325 326 329 328 325
321 320 318 318 317 317 318 318 317 316 316 317 317 316 316 316 315 316 316 314 313 314 316 315 314 312 312 313 314 310 307 309 313 314 316 318 321 323 323 325 326 327 327
320 320 318 317 316 316 315 315 316 316 315 314 315 315 315 314 314 313 313 313 312 313 314 316 316 314 313 312 311 309 303 305 312 313 312 314 316 319 322 323 324 325 327
320 319 318 315 315 315 315 315 315 315 315 314 314 315 314 313 313 313 313 313 312 312 313 312 314 313 314 314 313 307 303 302 312 315 314 314 314 314 319 322 323 324 324
317 316 316 316 315 315 316 317 316 315 315 315 315 315 314 313 313 314 313 313 313 312 312 312 310 309 309 309 307 306 302 301 310 315 314 315 315 315 316 319 322 323 324
316 317 317 318 317 317 317 316 315 314 314 313 313 312 311 312 314 314 314 313 313 312 312 311 309 308 307 306 305 303 301 301 307 314 315 315 315 315 316 317 318 320 321
Wind_Speed
31 31 28 26 24 25 25 24 25 26 26 24 17 19 21 24 26 24 24 21 23 22 23 23 23 22 22 22 21 18 20 16 12 19 11 15 24 37 35 37 35 33 29
31 25 25 24 24 24 25 25 26 26 22 20 18 19 25 28 26 25 23 23 24 24 22 25 25 21 23 24 23 21 18 23 19 19 16 13 16 33 35 38 35 32 29
24 27 26 22 23 24 24 21 20 25 23 22 22 18 22 28 27 25 25 25 24 23 23 21 26 24 26 27 29 29 26 19 20 18 19 14 6 23 32 35 32 32 31
13 18 25 26 22 24 25 23 24 24 21 25 19 22 21 25 28 28 26 26 24 23 23 24 26 27 31 30 29 31 32 29 23 22 22 23 19 14 22 30 32 29 31
18 18 18 14 9 8 5 1 3 3 3 11 14 17 20 20 23 25 28 26 19 12 19 25 28 31 29 32 33 33 32 28 27 27 24 20 20 21 26 28 29 32 33
19 17 15 13 9 9 7 5 5 6 8 10 9 11 14 18 20 23 24 19 16 22 31 33 33 29 26 31 33 32 31 32 34 30 25 27 29 27 25 29 33 27 13
17 15 14 12 12 12 10 10 8 8 7 8 8 10 12 13 15 18 19 16 25 32 29 31 35 32 32 25 28 32 38 38 34 30 29 29 31 34 28 26 31 31 27
13 11 10 10 9 9 8 10 11 10 10 11 12 12 13 12 12 11 12 12 10 21 29 34 38 43 39 38 32 32 29 33 34 38 39 39 37 39 41 41 34 35 34
10 8 7 7 7 8 9 11 11 12 12 13 13 13 14 14 13 13 13 15 16 18 19 21 25 26 31 31 30 30 29 31 32 32 34 40 48 39 42 37 33 25 17
7 6 6 6 8 7 8 8 11 12 13 14 16 15 14 17 18 16 15 18 19 21 20 20 20 22 21 22 27 30 29 30 29 29 31 35 41 47 50 45 40 29 23
5 5 5 6 7 7 9 10 9 10 10 12 15 17 18 18 18 19 20 21 21 22 19 16 15 17 8 10 12 16 21 25 27 30 30 30 35 41 46 45 51 40 29
4 5 5 5 5 5 10 12 14 15 13 16 18 17 17 17 18 20 24 21 13 9 9 12 16 20 22 23 26 29 30 28 30 29 31 28 28 34 39 46 49 52 48
4 5 5 6 7 5 9 13 12 13 18 20 19 17 17 16 13 16 22 20 17 16 15 14 15 20 22 24 25 25 26 30 29 24 24 28 34 34 37 40 45 46 43
5 8 12 12 11 14 18 18 9 11 14 13 15 15 17 17 17 19 21 18 18 18 19 20 21 22 23 25 25 26 27 25 26 25 25 28 30 30 33 35 31 29 28
9 12 14 16 17 17 16 15 11 11 11 9 12 14 15 18 19 19 20 22 21 20 23 23 22 23 26 27 26 25 24 25 23 26 25 26 27 26 29 29 30 31 27
11 10 10 12 11 13 13 13 10 6 8 12 14 16 17 16 20 22 22 21 20 20 20 19 19 19 22 25 26 23 22 26 26 25 25 26 26 24 27 29 31 29 28
5 8 6 10 10 9 7 8 8 10 11 13 11 11 13 16 20 19 20 18 15 16 18 18 15 20 17 20 21 21 19 23 24 25 21 25 27 23 25 25 30 26 21
10 8 9 10 8 7 6 5 6 8 10 15 16 18 19 18 18 22 23 23 25 23 22 20 20 22 24 23 23 22 22 25 21 21 22 20 16 18 19 21 24 24 25
7 9 9 10 8 7 10 6 7 8 11 13 17 22 23 20 20 22 24 25 20 21 23 22 22 23 24 23 23 23 21 21 20 20 20 20 18 19 15 11 18 16 24
13 8 5 9 9 12 11 12 13 18 10 13 16 17 17 15 18 20 20 21 21 21 24 28 26 22 21 21 23 24 22 24 24 21 22 21 21 21 22 21 19 14 10
13 10 8 8 7 5 5 14 15 16 15 5 11 12 13 14 5 11 12 14 15 17 20 22 23 25 24 23 22 24 22 22 22 23 24 25 24 22 21 20 21 20 18
11 9 9 6 6 3 4 6 7 7 11 10 5 6 9 13 8 8 6 11 15 17 16 17 18 20 22 22 21 26 28 28 30 28 27 25 25 26 22 17 16 15 16
8 9 12 11 11 9 10 11 11 11 10 12 14 11 11 14 10 11 9 11 17 20 19 18 15 16 16 19 19 26 30 32 34 29 23 24 25 25 25 24 19 17 15
5 5 15 12 6 3 2 3 6 8 12 12 15 12 11 12 16 9 8 8 14 17 19 23 14 17 16 16 19 25 30 30 31 25 21 21 23 26 24 23 22 19 21
6 11 9 5 5 0 4 7 11 14 13 15 14 14 13 16 16 14 11 8 11 15 17 18 15 17 17 16 24 30 33 29 29 25 21 20 23 22 22 24 24 20 18
9 6 2 6 12 10 8 8 10 11 12 14 15 16 19 19 19 17 9 14 12 14 15 11 13 17 22 24 27 32 30 29 30 26 21 20 22 24 23 22 21 23 21
Wind_Direction
197 208 215 225 235 237 241 245 249 253 256 262 260 240 220 218 221 224 228 228 226 229 231 236 240 244 249 251 255 253 248 245 236 271 280 300 232 220 223 223 224 221 225
200 206 220 227 230 235 242 247 252 251 253 255 253 238 228 218 223 228 233 232 229 231 235 233 239 242 245 248 248 256 266 260 247 254 269 299 211 211 219 211 216 219 221
198 210 217 218 225 234 237 240 254 250 255 249 241 239 228 223 224 234 240 240 236 240 244 240 237 241 245 246 247 244 248 255 255 247 255 259 225 201 205 206 208 214 221
207 226 230 233 237 245 244 258 257 255 256 241 236 237 238 233 231 234 239 241 240 241 246 246 244 246 243 243 243 245 249 249 255 263 265 260 239 216 207 203 204 215 226
81 72 72 97 93 91 114 55 314 325 231 235 246 249 248 247 245 246 241 246 248 263 276 258 247 244 253 255 250 247 246 245 245 249 261 261 247 229 216 220 219 221 224
73 65 61 62 55 44 23 355 330 310 283 272 268 265 267 261 258 258 261 261 215 207 246 253 249 241 245 250 252 252 250 242 241 240 242 245 249 239 228 221 219 221 228
74 61 54 48 43 37 27 12 352 343 329 315 301 280 270 273 274 270 280 269 229 215 238 247 252 260 270 265 258 256 261 255 246 249 244 236 242 247 239 227 222 216 223
67 56 43 35 28 21 20 16 16 7 346 323 320 320 311 302 288 276 280 283 256 243 248 252 256 260 268 260 265 271 267 260 252 247 245 249 245 248 246 247 237 239 234
68 55 38 23 12 359 355 357 358 346 339 345 346 330 323 320 312 297 281 274 271 271 272 273 272 270 266 267 271 272 269 275 277 275 264 255 248 246 250 249 239 231 228
50 38 27 9 354 358 5 356 333 323 320 316 315 315 320 316 310 295 284 272 266 269 272 274 277 278 282 279 277 273 268 271 275 272 265 261 253 253 250 246 241 229 224
20 17 19 12 10 46 355 351 352 350 344 345 336 334 330 350 344 320 301 289 277 278 279 285 281 271 296 302 301 306 291 289 290 287 277 268 268 266 257 246 244 237 232
29 16 7 1 7 347 356 354 346 347 5 33 20 11 17 17 30 38 31 25 10 315 314 290 286 290 292 292 293 292 292 299 285 277 274 272 267 258 251 250 249 243 238
17 4 344 322 319 328 335 345 57 39 33 19 11 8 4 3 356 355 354 359 351 344 334 320 310 301 302 297 299 295 296 291 289 263 259 265 274 267 254 244 242 244 240
31 8 24 44 45 38 45 35 26 46 35 18 8 360 357 355 349 348 349 350 348 339 327 315 307 302 294 290 295 299 298 295 277 264 266 268 271 269 257 242 233 230 237
33 64 47 45 43 37 33 29 48 51 29 0 355 348 346 352 357 345 341 338 335 333 327 323 321 320 314 307 299 292 297 294 270 265 263 272 274 266 261 248 228 226 224
62 51 73 48 41 34 21 17 49 30 353 348 345 328 337 341 346 344 334 329 331 331 330 331 332 327 312 309 309 312 322 326 314 289 275 272 271 268 261 253 240 232 230
67 54 95 62 50 38 16 19 357 355 345 356 1 6 350 345 358 5 13 3 4 360 343 341 338 342 350 356 352 349 341 350 336 339 305 277 278 272 266 263 249 240 234
98 64 82 45 61 26 13 340 323 314 335 59 42 26 23 20 21 22 20 22 22 18 15 3 358 359 357 352 347 348 345 344 344 350 339 345 312 294 276 262 250 234 242
81 95 66 74 48 25 9 351 331 343 0 73 46 35 26 23 31 33 30 30 21 16 9 0 357 351 349 356 353 -0 353 346 346 347 343 342 339 330 335 327 329 272 249
102 100 100 84 53 47 49 29 25 17 56 77 58 43 24 16 27 26 24 20 19 13 7 9 11 5 1 358 0 360 358 354 352 356 354 351 344 339 324 314 303 286 293
112 94 87 122 75 50 13 60 35 26 24 121 68 55 29 10 13 26 29 26 16 7 357 2 11 11 6 10 9 7 1 356 348 340 337 333 333 330 331 324 313 308 308
122 136 125 95 122 90 54 98 69 34 11 359 15 23 21 10 20 17 33 17 10 351 342 350 357 7 6 7 4 7 2 354 346 337 328 323 320 320 318 319 308 301 291
173 185 150 98 64 80 47 38 34 19 5 19 10 11 16 16 5 22 25 18 9 353 341 322 325 344 350 357 358 0 357 350 342 335 325 317 310 308 310 308 304 297 284
230 214 138 118 107 78 35 41 29 19 5 9 358 358 2 5 351 347 357 9 5 356 354 354 344 348 338 348 352 349 349 345 343 338 335 327 318 310 301 299 298 302 294
106 87 101 132 152 226 342 71 43 27 16 360 2 0 9 349 340 334 338 359 360 359 353 354 11 5 8 346 341 343 342 343 343 336 326 331 335 330 316 300 302 302 294
106 99 83 37 87 43 53 57 38 33 25 11 4 357 349 344 341 339 9 356 351 354 346 357 4 355 347 340 339 341 342 342 343 343 331 323 329 336 334 340 329 315 298